timestamp,wind_dir_avg,wind_spd_max_dir,wind_spd_avg,wind_spd_gust,battery_voltage,lat,long
2017-12-13 00:00:00+00:00,78.0,80.0,8.47,9.73,,47.59359,-54.27349
2017-12-13 00:10:00+00:00,83.0,84.0,8.27,10.05,,47.59359,-54.27349
2017-12-13 00:20:00+00:00,81.0,84.0,9.2,12.85,,47.59359,-54.27349
2017-12-13 00:30:00+00:00,82.0,84.0,9.54,10.33,,47.59359,-54.27349
2017-12-13 00:40:00+00:00,76.0,71.0,9.26,10.86,,47.59359,-54.27349
2017-12-13 00:50:00+00:00,83.0,89.0,9.12,10.99,,47.59359,-54.27349
2017-12-13 01:00:00+00:00,85.0,84.0,9.69,11.81,,47.59359,-54.27349
2017-12-13 01:10:00+00:00,86.0,83.0,8.61,13.06,,47.59359,-54.27349
2017-12-13 01:20:00+00:00,85.0,77.0,8.67,12.1,,47.59359,-54.27349
2017-12-13 01:30:00+00:00,83.0,80.0,9.33,10.36,,47.59359,-54.27349
2017-12-13 01:40:00+00:00,88.0,99.0,7.81,10.82,,47.59359,-54.27349
2017-12-13 01:50:00+00:00,88.0,73.0,6.32,8.37,,47.59359,-54.27349
2017-12-13 02:00:00+00:00,83.0,76.0,7.22,9.75,,47.59359,-54.27349
2017-12-13 02:10:00+00:00,90.0,92.0,7.25,8.97,,47.59359,-54.27349
2017-12-13 02:20:00+00:00,85.0,81.0,8.71,11.9,,47.59359,-54.27349
2017-12-13 02:30:00+00:00,82.0,81.0,9.56,11.61,,47.59359,-54.27349
2017-12-13 02:40:00+00:00,84.0,87.0,9.77,11.86,,47.59359,-54.27349
2017-12-13 02:50:00+00:00,82.0,89.0,9.47,10.99,,47.59359,-54.27349
2017-12-13 03:00:00+00:00,82.0,82.0,9.84,11.32,,47.59359,-54.27349
2017-12-13 03:10:00+00:00,81.0,86.0,8.86,10.08,,47.59359,-54.27349
2017-12-13 03:20:00+00:00,80.0,81.0,10.4,11.4,,47.59359,-54.27349
2017-12-13 03:30:00+00:00,84.0,90.0,9.95,11.52,,47.59359,-54.27349
2017-12-13 03:40:00+00:00,80.0,73.0,9.22,10.49,,47.59359,-54.27349
2017-12-13 03:50:00+00:00,86.0,85.0,8.73,10.88,,47.59359,-54.27349
2017-12-13 04:00:00+00:00,78.0,77.0,9.29,11.13,,47.59359,-54.27349
2017-12-13 04:10:00+00:00,77.0,77.0,9.28,10.31,,47.59359,-54.27349
2017-12-13 04:20:00+00:00,85.0,92.0,8.07,10.0,,47.59359,-54.27349
2017-12-13 04:30:00+00:00,76.0,72.0,8.16,9.45,,47.59359,-54.27349
2017-12-13 04:40:00+00:00,77.0,62.0,6.51,8.44,,47.59359,-54.27349
2017-12-13 04:50:00+00:00,81.0,80.0,6.05,7.96,,47.59359,-54.27349
2017-12-13 05:00:00+00:00,86.0,84.0,5.06,7.42,,47.59359,-54.27349
2017-12-13 05:10:00+00:00,81.0,82.0,6.88,8.0,,47.59359,-54.27349
2017-12-13 05:20:00+00:00,74.0,75.0,7.7,8.38,,47.59359,-54.27349
2017-12-13 05:30:00+00:00,79.0,78.0,6.12,7.99,,47.59359,-54.27349
2017-12-13 05:40:00+00:00,82.0,83.0,6.49,7.36,,47.59359,-54.27349
2017-12-13 05:50:00+00:00,85.0,81.0,8.01,9.04,,47.59359,-54.27349
2017-12-13 06:00:00+00:00,87.0,78.0,7.21,8.86,,47.59359,-54.27349
2017-12-13 06:10:00+00:00,82.0,81.0,7.65,8.67,,47.59359,-54.27349
2017-12-13 06:20:00+00:00,86.0,82.0,6.63,7.98,,47.59359,-54.27349
2017-12-13 06:30:00+00:00,96.0,88.0,5.68,8.4,,47.59359,-54.27349
2017-12-13 06:40:00+00:00,87.0,92.0,7.04,8.83,,47.59359,-54.27349
2017-12-13 06:50:00+00:00,89.0,86.0,6.28,9.8,,47.59359,-54.27349
2017-12-13 07:00:00+00:00,94.0,98.0,5.29,7.51,,47.59359,-54.27349
2017-12-13 07:10:00+00:00,92.0,96.0,4.37,5.91,,47.59359,-54.27349
2017-12-13 07:20:00+00:00,87.0,77.0,4.41,6.97,,47.59359,-54.27349
2017-12-13 07:30:00+00:00,91.0,79.0,4.36,8.13,,47.59359,-54.27349
2017-12-13 07:40:00+00:00,94.0,107.0,3.7,5.68,,47.59359,-54.27349
2017-12-13 07:50:00+00:00,84.0,99.0,4.05,6.04,,47.59359,-54.27349
2017-12-13 08:00:00+00:00,103.0,108.0,3.52,5.46,,47.59359,-54.27349
2017-12-13 08:10:00+00:00,83.0,76.0,3.95,5.12,,47.59359,-54.27349
2017-12-13 08:20:00+00:00,95.0,79.0,3.41,4.68,,47.59359,-54.27349
2017-12-13 08:30:00+00:00,102.0,112.0,4.3,7.58,,47.59359,-54.27349
2017-12-13 08:40:00+00:00,94.0,93.0,5.35,9.55,,47.59359,-54.27349
2017-12-13 08:50:00+00:00,90.0,90.0,4.38,6.69,,47.59359,-54.27349
2017-12-13 09:00:00+00:00,95.0,103.0,3.87,5.44,,47.59359,-54.27349
2017-12-13 09:10:00+00:00,86.0,85.0,4.08,5.77,,47.59359,-54.27349
2017-12-13 09:20:00+00:00,116.0,124.0,3.81,7.19,,47.59359,-54.27349
2017-12-13 09:30:00+00:00,108.0,122.0,4.42,6.5,,47.59359,-54.27349
2017-12-13 09:40:00+00:00,108.0,104.0,5.02,7.6,,47.59359,-54.27349
2017-12-13 09:50:00+00:00,100.0,98.0,4.05,5.81,,47.59359,-54.27349
2017-12-13 10:00:00+00:00,105.0,118.0,3.73,6.91,,47.59359,-54.27349
2017-12-13 10:10:00+00:00,97.0,93.0,4.05,7.05,,47.59359,-54.27349
2017-12-13 10:20:00+00:00,106.0,133.0,3.91,6.74,,47.59359,-54.27349
2017-12-13 10:30:00+00:00,82.0,78.0,3.82,6.58,,47.59359,-54.27349
2017-12-13 10:40:00+00:00,90.0,79.0,4.29,6.56,,47.59359,-54.27349
2017-12-13 10:50:00+00:00,88.0,85.0,5.33,8.59,,47.59359,-54.27349
2017-12-13 11:00:00+00:00,88.0,80.0,3.72,5.93,,47.59359,-54.27349
2017-12-13 11:10:00+00:00,91.0,88.0,4.57,6.44,,47.59359,-54.27349
2017-12-13 11:20:00+00:00,92.0,78.0,4.49,6.54,,47.59359,-54.27349
2017-12-13 11:30:00+00:00,96.0,105.0,3.88,6.01,,47.59359,-54.27349
2017-12-13 11:40:00+00:00,93.0,87.0,3.04,4.27,,47.59359,-54.27349
2017-12-13 11:50:00+00:00,83.0,81.0,2.55,4.22,,47.59359,-54.27349
2017-12-13 12:00:00+00:00,90.0,111.0,3.69,5.77,,47.59359,-54.27349
2017-12-13 12:10:00+00:00,88.0,72.0,4.7,6.46,,47.59359,-54.27349
2017-12-13 12:20:00+00:00,91.0,91.0,5.1,8.96,,47.59359,-54.27349
2017-12-13 12:30:00+00:00,98.0,84.0,4.53,7.64,,47.59359,-54.27349
2017-12-13 12:40:00+00:00,104.0,121.0,6.3,9.15,,47.59359,-54.27349
2017-12-13 12:50:00+00:00,113.0,104.0,4.98,8.99,,47.59359,-54.27349
2017-12-13 13:00:00+00:00,102.0,79.0,3.5,6.32,,47.59359,-54.27349
2017-12-13 13:10:00+00:00,116.0,127.0,4.88,7.65,,47.59359,-54.27349
2017-12-13 13:20:00+00:00,119.0,149.0,2.58,5.81,,47.59359,-54.27349
2017-12-13 13:30:00+00:00,116.0,117.0,1.99,4.24,,47.59359,-54.27349
2017-12-13 13:40:00+00:00,97.0,99.0,2.41,3.85,,47.59359,-54.27349
2017-12-13 13:50:00+00:00,109.0,80.0,2.11,3.59,,47.59359,-54.27349
2017-12-13 14:00:00+00:00,84.0,96.0,2.81,3.93,,47.59359,-54.27349
2017-12-13 14:10:00+00:00,96.0,96.0,3.26,5.56,,47.59359,-54.27349
2017-12-13 14:20:00+00:00,101.0,116.0,3.5,5.75,,47.59359,-54.27349
2017-12-13 14:30:00+00:00,117.0,127.0,3.72,5.27,,47.59359,-54.27349
2017-12-13 14:40:00+00:00,113.0,110.0,2.27,3.88,,47.59359,-54.27349
2017-12-13 14:50:00+00:00,98.0,91.0,2.49,4.29,,47.59359,-54.27349
2017-12-13 15:00:00+00:00,93.0,92.0,2.99,4.47,,47.59359,-54.27349
2017-12-13 15:10:00+00:00,95.0,105.0,4.22,6.91,,47.59359,-54.27349
2017-12-13 15:20:00+00:00,90.0,97.0,4.07,6.21,,47.59359,-54.27349
2017-12-13 15:30:00+00:00,106.0,129.0,3.17,5.16,,47.59359,-54.27349
2017-12-13 15:40:00+00:00,110.0,83.0,3.58,5.39,,47.59359,-54.27349
2017-12-13 15:50:00+00:00,111.0,116.0,3.81,5.57,,47.59359,-54.27349
2017-12-13 16:00:00+00:00,116.0,124.0,3.9,6.15,,47.59359,-54.27349
2017-12-13 16:10:00+00:00,98.0,95.0,3.92,6.03,,47.59359,-54.27349
2017-12-13 16:20:00+00:00,93.0,99.0,3.97,5.27,,47.59359,-54.27349
2017-12-13 16:30:00+00:00,100.0,95.0,3.61,5.45,,47.59359,-54.27349
2017-12-13 16:40:00+00:00,110.0,113.0,5.51,9.56,,47.59359,-54.27349
2017-12-13 16:50:00+00:00,115.0,138.0,5.24,7.86,,47.59359,-54.27349
2017-12-13 17:00:00+00:00,111.0,97.0,5.55,8.59,,47.59359,-54.27349
2017-12-13 17:10:00+00:00,123.0,128.0,4.93,8.48,,47.59359,-54.27349
2017-12-13 17:20:00+00:00,126.0,132.0,5.38,9.37,,47.59359,-54.27349
2017-12-13 17:30:00+00:00,127.0,114.0,6.33,8.76,,47.59359,-54.27349
2017-12-13 17:40:00+00:00,119.0,147.0,4.8,8.19,,47.59359,-54.27349
2017-12-13 17:50:00+00:00,120.0,112.0,5.69,9.06,,47.59359,-54.27349
2017-12-13 18:00:00+00:00,107.0,117.0,5.21,8.07,,47.59359,-54.27349
2017-12-13 18:10:00+00:00,110.0,130.0,5.31,10.41,,47.59359,-54.27349
2017-12-13 18:20:00+00:00,107.0,109.0,5.91,9.52,,47.59359,-54.27349
2017-12-13 18:30:00+00:00,115.0,130.0,5.64,9.23,,47.59359,-54.27349
2017-12-13 18:40:00+00:00,132.0,134.0,7.04,9.31,,47.59359,-54.27349
2017-12-13 18:50:00+00:00,125.0,98.0,4.69,8.67,,47.59359,-54.27349
2017-12-13 19:00:00+00:00,128.0,139.0,4.61,8.82,,47.59359,-54.27349
2017-12-13 19:10:00+00:00,123.0,138.0,5.89,9.59,,47.59359,-54.27349
2017-12-13 19:20:00+00:00,137.0,133.0,5.91,8.28,,47.59359,-54.27349
2017-12-13 19:30:00+00:00,135.0,135.0,7.04,8.35,,47.59359,-54.27349
2017-12-13 19:40:00+00:00,129.0,132.0,4.77,7.39,,47.59359,-54.27349
2017-12-13 19:50:00+00:00,118.0,100.0,2.97,4.99,,47.59359,-54.27349
2017-12-13 20:00:00+00:00,106.0,107.0,2.68,4.55,,47.59359,-54.27349
2017-12-13 20:10:00+00:00,106.0,161.0,2.44,6.38,,47.59359,-54.27349
2017-12-13 20:20:00+00:00,132.0,133.0,4.08,6.11,,47.59359,-54.27349
2017-12-13 20:30:00+00:00,140.0,134.0,2.3,3.62,,47.59359,-54.27349
2017-12-13 20:40:00+00:00,120.0,141.0,2.34,4.61,,47.59359,-54.27349
2017-12-13 20:50:00+00:00,88.0,87.0,2.21,3.92,,47.59359,-54.27349
2017-12-13 21:00:00+00:00,92.0,88.0,3.16,3.92,,47.59359,-54.27349
2017-12-13 21:10:00+00:00,93.0,103.0,3.47,5.14,,47.59359,-54.27349
2017-12-13 21:20:00+00:00,95.0,111.0,2.42,3.72,,47.59359,-54.27349
2017-12-13 21:30:00+00:00,90.0,113.0,2.78,3.96,,47.59359,-54.27349
2017-12-13 21:40:00+00:00,103.0,112.0,3.43,5.31,,47.59359,-54.27349
2017-12-13 21:50:00+00:00,130.0,129.0,5.63,7.27,,47.59359,-54.27349
2017-12-13 22:00:00+00:00,134.0,133.0,5.8,8.22,,47.59359,-54.27349
2017-12-13 22:10:00+00:00,130.0,128.0,6.38,7.84,,47.59359,-54.27349
2017-12-13 22:20:00+00:00,127.0,123.0,4.08,5.77,,47.59359,-54.27349
2017-12-13 22:30:00+00:00,107.0,106.0,3.58,5.03,,47.59359,-54.27349
2017-12-13 22:40:00+00:00,83.0,80.0,1.55,3.25,,47.59359,-54.27349
2017-12-13 22:50:00+00:00,49.0,52.0,1.54,2.53,,47.59359,-54.27349
2017-12-13 23:00:00+00:00,49.0,50.0,1.89,2.36,,47.59359,-54.27349
2017-12-13 23:10:00+00:00,75.0,54.0,2.17,2.6,,47.59359,-54.27349
2017-12-13 23:20:00+00:00,78.0,71.0,2.93,3.8,,47.59359,-54.27349
2017-12-13 23:30:00+00:00,75.0,80.0,2.69,3.56,,47.59359,-54.27349
2017-12-13 23:40:00+00:00,146.0,153.0,6.04,7.82,,47.59359,-54.27349
2017-12-13 23:50:00+00:00,148.0,149.0,6.66,8.16,,47.59359,-54.27349
